"Pseudo-MPEC" for C1HUEF2
Created 2019 Dec 7 1:07:12 UT using Find_Orb
Click here for an explanation of pseudo-MPECs
Astrometry: C1HUEF2 C2019 12 03.21594 04 16 38.11 +02 47 36.4 ~C5Iq 18.3 GVNEOCPG96 C1HUEF2 C2019 12 03.21606 04 16 39.42 +02 47 30.2 ~C5Iq 18.0 GVNEOCPG96 C1HUEF2 C2019 12 03.21617 04 16 40.68 +02 47 24.3 ~C5Iq 18.0 GVNEOCPG96 C1HUEF2 C2019 12 03.21629 04 16 41.99 +02 47 18.6 ~C5Iq 18.4 GVNEOCPG96 C1HUEF2 C2019 12 03.28864 04 30 05.86 +01 40 43.4 ~C37b 18.1 GVNEOCPG96 C1HUEF2 C2019 12 03.28875 04 30 07.20 +01 40 36.5 ~C37b 17.6 GVNEOCPG96 C1HUEF2 C2019 12 03.28887 04 30 08.47 +01 40 29.7 ~C37b 18.6 GVNEOCPG96 C1HUEF2 C2019 12 03.28898 04 30 09.72 +01 40 23.7 ~C37b 19.0 GVNEOCPG96 C1HUEF2 C2019 12 03.30240 04 32 39.32 +01 27 15.2 ~C37q 18.4 GVNEOCPI52 C1HUEF2 C2019 12 03.30287 04 32 44.57 +01 26 47.1 ~C37q 18.0 GVNEOCPI52 C1HUEF2 C2019 12 03.30335 04 32 50.00 +01 26 18.2 ~C37q 17.9 GVNEOCPI52 C1HUEF2 C2019 12 03.30383 04 32 55.27 +01 25 50.3 ~C37q 18.3 GVNEOCPI52 Station data: (G96) Mt. Lemmon Survey (N32.442754 W110.788720) US/Arizona. Observers T. A. Pruyne, B. M. Africano, E. J. Christensen, G. A. Farneth, D. C. Fuls, A. R. Gibbs, A. D. Grauer, H. Gröller, J. A. Johnson, R. A. Kowalski, S. M. Larson, G. J. Leonard, D. Rankin, R. L. Seaman, F. C. Shelly. 1.5-m reflector + 10K CCD. (I52) Steward Observatory, Mt. Lemmon Station (N32.442547 W110.788920) US/Arizona. Observers T. A. Pruyne, B. M. Africano, E. J. Christensen, G. A. Farneth, D. C. Fuls, A. R. Gibbs, A. D. Grauer, H. Gröller, J. A. Johnson, R. A. Kowalski, S. M. Larson, G. J. Leonard, D. Rankin, R. L. Seaman, F. C. Shelly. 1.0-m reflector + CCD. Orbital elements: C1HUEF2 Perigee 2019 Dec 2.430122 +/- 0.00838 TT = 10:19:22 (JD 2458819.930122) Epoch 2019 Dec 3.0 TT = JDT 2458820.5 AutoNEOCP M 135.48142894 +/- 0.9 (J2000 equator) n 237.73770770 +/- 2.03 Peri. 336.97491 +/- 0.17 a 55702.0859 +/- 317 Node 263.30694 +/- 0.015 e 0.6612623 +/- 0.0031 Incl. 13.28356 +/- 0.017 P2180.51m/1.514d H 33.8 G 0.15 U 13.2 q 18868.3956 +/- 281 Q 92535.7762 +/- 359 From 12 observations 2019 Dec. 3 (2.1 hr); mean residual 0".42
Residuals in arcseconds: 191203 G96 .50+ .12- 191203 G96 .96- .18+ 191203 I52 .10+ .21+ 191203 G96 .15- .05- 191203 G96 .80+ .32- 191203 I52 .06- .00 191203 G96 .15+ .20- 191203 G96 .14- .14- 191203 I52 .78+ .41- 191203 G96 .50- .38+ 191203 G96 .27+ .26+ 191203 I52 .81- .21+ Ephemerides (geocentric): Date (UTC) HH RA Dec delta r elong mag " sig PA ---- -- -- -- ------------- ----------- ------ ------ ----- --- ---- --- 2019 12 07 01 21 19 45.671 +11 08 48.76 28177 .98518 73.7 19.1 19d 83 2019 12 07 02 22 50 47.859 +13 02 49.06 36615 .98524 94.6 18.7 712' 88 2019 12 07 03 23 48 38.170 +13 13 53.95 44575 .98531 107.8 18.6 509' 91 2019 12 07 04 00 29 30.367 +12 52 20.53 51778 .98537 117.1 18.7 394' 93 2019 12 07 05 01 00 41.686 +12 19 47.92 58223 .98542 124.0 18.7 323' 95 2019 12 07 06 01 25 50.420 +11 43 43.72 63963 .98547 129.6 18.8 275' 96 2019 12 07 07 01 46 57.156 +11 06 55.11 69059 .98552 134.2 18.8 241' 97 2019 12 07 08 02 05 14.213 +10 30 25.51 73562 .98556 138.1 18.8 217' 98 2019 12 07 09 02 21 27.911 +09 54 36.50 77516 .98559 141.5 18.8 198' 99 2019 12 07 10 02 36 09.567 +09 19 31.74 80957 .98562 144.5 18.9 184' 99 2019 12 07 11 02 49 41.349 +08 45 07.01 83915 .98564 147.2 18.9 173' 100 2019 12 07 12 03 02 19.593 +08 11 14.57 86413 .98566 149.6 18.9 9891 100 2019 12 07 13 03 14 16.800 +07 37 45.09 88469 .98568 151.7 18.8 9514 101 2019 12 07 14 03 25 42.882 +07 04 28.53 90099 .98569 153.6 18.8 9238 101 2019 12 07 15 03 36 45.996 +06 31 14.38 91314 .98570 155.3 18.8 9050 101 2019 12 07 16 03 47 33.109 +05 57 51.75 92121 .98571 156.8 18.8 8943 102 2019 12 07 17 03 58 10.423 +05 24 09.22 92527 .98571 158.0 18.8 8912 102 2019 12 07 18 04 08 43.694 +04 49 54.58 92533 .98571 159.0 18.7 8956 102 2019 12 07 19 04 19 18.515 +04 14 54.54 92140 .98570 159.7 18.7 9079 102 2019 12 07 20 04 30 00.575 +03 38 54.27 91345 .98569 160.1 18.7 9287 103 2019 12 07 21 04 40 55.931 +03 01 36.87 90142 .98568 160.1 18.6 9592 103 2019 12 07 22 04 52 11.321 +02 22 42.59 88525 .98566 159.7 18.6 167' 103 2019 12 07 23 05 03 54.571 +01 41 47.88 86481 .98564 159.0 18.6 176' 103 2019 12 08 00 05 16 15.133 +00 58 23.97 83997 .98562 157.8 18.6 188' 103 2019 12 08 01 05 29 24.872 +00 11 54.97 81052 .98559 156.2 18.5 205' 103 2019 12 08 02 05 43 39.259 -00 38 24.93 77624 .98555 154.1 18.5 226' 103 2019 12 08 03 05 59 19.271 -01 33 35.52 73684 .98551 151.4 18.5 255' 103 2019 12 08 04 06 16 54.574 -02 34 56.63 69196 .98546 148.1 18.4 295' 103 2019 12 08 05 06 37 09.191 -03 44 17.13 64116 .98541 144.0 18.4 352' 103 2019 12 08 06 07 01 12.254 -05 04 07.54 58392 .98536 138.9 18.3 439' 102 2019 12 08 07 07 31 00.193 -06 37 53.97 51965 .98529 132.4 18.2 580' 101 2019 12 08 08 08 10 07.204 -08 29 49.86 44779 .98521 123.5 18.2 833' 100 2019 12 08 09 09 05 53.971 -10 41 56.23 36833 .98513 110.7 18.1 22d 98 2019 12 08 10 10 35 25.459 -12 51 49.72 28390 .98504 90.2 18.3 41d 93 2019 12 08 11 13 17 17.800 -11 56 56.03 20928 .98495 53.5 19?? 65d 84 2019 12 08 12 17 21 26.864 -00 40 03.86 19278 .98491 22.7 24?? 52d 77 2019 12 08 13 20 34 31.729 +09 31 54.96 25286 .98494 61.9 19.6 29d 81 2019 12 08 14 22 24 26.058 +12 41 40.44 33669 .98500 87.2 18.8 18d 86 2019 12 08 15 23 31 18.628 +13 15 34.06 41865 .98507 102.4 18.7 745' 90 2019 12 08 16 00 16 58.594 +13 01 18.29 49345 .98513 112.7 18.7 565' 93 2019 12 08 17 00 50 59.526 +12 31 07.35 56054 .98519 120.4 18.7 456' 94 2019 12 08 18 01 17 56.620 +11 55 40.60 62037 .98524 126.3 18.8 384' 96 2019 12 08 19 01 40 16.835 +11 18 50.96 67355 .98528 131.2 18.8 334' 97 2019 12 08 20 01 59 25.948 +10 42 06.84 72062 .98532 135.3 18.9 298' 98 2019 12 08 21 02 16 17.720 +10 05 59.93 76205 .98536 138.9 18.9 271' 99 2019 12 08 22 02 31 27.850 +09 30 38.23 79824 .98539 142.0 18.9 250' 99 2019 12 08 23 02 45 21.217 +08 55 59.33 82949 .98542 144.8 18.9 235' 100 2019 12 09 00 02 58 15.907 +08 21 56.27 85607 .98544 147.3 18.9 223' 100